Bedford, Massachusetts, United States (01730)
Lat: 42.49N, Lon: 71.28W
Wx Zone: MAZ005
Local Info
Past Weather Observations for Monday, August 22, 2016

NOTE: This archive is for the closest National Weather Service station to Bedford. Information may differ from the station used for current weather conditions.

Click here for Long-term Archive

Time Weather Temperature Dewpoint Humidity Pressure Winds Precip Visibility
23:56
Clear
54°F / 12°C 46°F / 8°C 77% 30.18 in
(1022 mb)
Calm - 10SM
22:56
Clear
57°F / 14°C 46°F / 8°C 67% 30.15 in
(1021 mb)
SSW 3.5 mph
(SSW 6 kph)
- 10SM
21:56
Clear
57°F / 14°C 46°F / 8°C 67% 30.12 in
(1020 mb)
SW 4.6 mph
(SW 7 kph)
- 10SM
20:56
Clear
63°F / 17°C 45°F / 7°C 52% 30.12 in
(1020 mb)
Calm - 10SM
19:56
Clear
64°F / 18°C 45°F / 7°C 49% 30.09 in
(1019 mb)
NW 8.1 mph
(NW 13 kph)
- 10SM
18:56
Partly Cloudy
64°F / 18°C 46°F / 8°C 52% 30.06 in
(1018 mb)
NW 6.9 mph
(NW 11 kph)
- 10SM
17:56
Clear
70°F / 21°C 46°F / 8°C 43% 30.04 in
(1017 mb)
NW 10.4 mph
(NW 17 kph)
- 10SM
16:56
Partly Cloudy
73°F / 23°C 46°F / 8°C 38% 29.98 in
(1015 mb)
NNW 12.7 mph
(NNW 20 kph)
- 10SM
15:56
Partly Cloudy
75°F / 24°C 48°F / 9°C 39% 29.95 in
(1014 mb)
NW 13.8 mph
(NW 22 kph)
- 10SM
14:56
Clear
75°F / 24°C 46°F / 8°C 36% 29.92 in
(1013 mb)
WNW 17.3 mph
(WNW 28 kph)
- 10SM
13:56
Partly Cloudy
77°F / 25°C 50°F / 10°C 39% 29.92 in
(1013 mb)
NW 18.4 mph
(NW 30 kph)
- 10SM
12:56
Clear
79°F / 26°C 52°F / 11°C 39% 29.89 in
(1012 mb)
NW 20.7 mph
(NW 33 kph)
- 10SM
11:56
Clear
79°F / 26°C 54°F / 12°C 42% 29.89 in
(1012 mb)
NW 20.7 mph
(NW 33 kph)
- 10SM
10:56
Mostly Cloudy
75°F / 24°C 55°F / 13°C 50% 29.89 in
(1012 mb)
WNW 18.4 mph
(WNW 30 kph)
- 10SM
09:56
Mostly Cloudy
73°F / 23°C 57°F / 14°C 57% 29.86 in
(1011 mb)
NW 16.1 mph
(NW 26 kph)
- 10SM
09:24
Mostly Cloudy
73°F / 23°C 59°F / 15°C 61% 29.86 in
(1011 mb)
NW 13.8 mph
(NW 22 kph)
- 10SM
08:56
Mostly Cloudy
72°F / 22°C 61°F / 16°C 69% 29.86 in
(1011 mb)
NW 10.4 mph
(NW 17 kph)
- 10SM
08:52
Mostly Cloudy
72°F / 22°C 61°F / 16°C 69% 29.83 in
(1010 mb)
NW 12.7 mph
(NW 20 kph)
- 10SM
07:56
Clear
72°F / 22°C 63°F / 17°C 73% 29.83 in
(1010 mb)
WNW 12.7 mph
(WNW 20 kph)
- 10SM
06:56
Clear
68°F / 20°C 63°F / 17°C 83% 29.8 in
(1009 mb)
W 10.4 mph
(W 17 kph)
- 10SM
05:56
Partly Cloudy
63°F / 17°C 61°F / 16°C 94% 29.77 in
(1008 mb)
SSW 6.9 mph
(SSW 11 kph)
- 10SM
04:56
Mostly Cloudy
64°F / 18°C 63°F / 17°C 94% 29.77 in
(1008 mb)
W 5.8 mph
(W 9 kph)
- 10SM
03:56
Overcast
66°F / 19°C 64°F / 18°C 94% 29.77 in
(1008 mb)
W 6.9 mph
(W 11 kph)
0.00 in
(0.00 mm)
10SM
02:56
Overcast
Light Rain
66°F / 19°C 64°F / 18°C 94% 29.74 in
(1007 mb)
NW 13.8 mph
(NW 22 kph)
0.13 in
(3.30 mm)
7SM
02:49
Overcast
Light Rain
68°F / 20°C 64°F / 18°C 88% 29.74 in
(1007 mb)
NW 16.1 mph
(NW 26 kph)
0.13 in
(3.30 mm)
6SM
02:46
Overcast
Light Rain
68°F / 20°C 64°F / 18°C 88% 29.74 in
(1007 mb)
NW 17.3 mph
(NW 28 kph)
0.13 in
(3.30 mm)
6SM
02:12
Overcast
Rain
73°F / 23°C 70°F / 21°C 89% 29.71 in
(1006 mb)
ESE 8.1 mph
(ESE 13 kph)
0.08 in
(2.03 mm)
4SM
01:56
Overcast
Rain
73°F / 23°C 70°F / 21°C 89% 29.71 in
(1006 mb)
SE 6.9 mph
(SE 11 kph)
0.25 in
(6.35 mm)
4SM
01:49
Overcast
Rain
73°F / 23°C 70°F / 21°C 89% 29.74 in
(1007 mb)
SE 6.9 mph
(SE 11 kph)
0.21 in
(5.33 mm)
3SM
01:38
Overcast
Rain
73°F / 23°C 70°F / 21°C 89% 29.74 in
(1007 mb)
SSE 5.8 mph
(SSE 9 kph)
0.14 in
(3.56 mm)
4SM
01:25
Overcast
Rain
73°F / 23°C 70°F / 21°C 89% 29.74 in
(1007 mb)
SE 6.9 mph
(SE 11 kph)
0.08 in
(2.03 mm)
3SM
00:56
Overcast
Light Rain
73°F / 23°C 72°F / 22°C 94% 29.74 in
(1007 mb)
SE 6.9 mph
(SE 11 kph)
0.08 in
(2.03 mm)
7SM
00:50
Mostly Cloudy
Light Rain
73°F / 23°C 72°F / 22°C 94% 29.74 in
(1007 mb)
SE 8.1 mph
(SE 13 kph)
0.07 in
(1.78 mm)
6SM
00:14
Overcast
Light Rain
73°F / 23°C 72°F / 22°C 94% 29.77 in
(1008 mb)
SE 4.6 mph
(SE 7 kph)
0.03 in
(0.76 mm)
7SM
Time Weather Temperature Dewpoint Humidity Pressure Winds Precip Visibility


Weather for websites

WeatherForYou.com, LLC is not responsible for any damages or problems caused by this service. Current weather conditions are obtained from the closest station including government and personal stations which may have varying degrees of accuracy. Weather forecasts are derived from the NOAA NDFD. Like all things, this site belongs to Jesus Christ... He just trusts us to maintain it. If you have any questions or comments email webmaster@weatherforyou.com

Copyright © 2016, WeatherForYou.com LLC. All rights reserved.